Starlink 6321

operational
NORAD ID: 57340 Int'l Des: 2023-099 Owner: SPXS Country: US Constellation: starlink
LEOCIRCULAR

About Starlink 6321

Description loading...

Live Position

Loading 3D Globe...

Upcoming Passes

Altitude History

Altitude vs Time

uPlot chart will show altitude changes over time

Two-Line Element Set

1 57340U 23099N 25304.76216763 .00001024 00000-0 90870-4 0 9999
2 57340 43.0032 229.4303 0001270 250.5499 109.5206 15.02526515126723
Epoch: Oct 31, 2025 • Age: 8 hours

Current Status

Altitude 570.1 km
Velocity 7.58 km/s
Sub-Earth Point -39.00°S, 97.75°E
Launch Date Jul 16, 2023
Age 2.2 years
Type internet

Technical Details

Classification Payload
Mass 305.00 kg
Dry Mass 290.00 kg
Total Mass 305.00 kg
Length 0.20 m
Diameter 2.80 m
Span 9.00 m
Shape Box + pan
Manufacturer SPXS
Bus Type Starlink
Phase Status In Orbit
Owner/State SPXS/US

Large Constellations

Loading constellations...